GW5982 Weather Reports


time (UTC)temp
F
wind
direction
speed
knots
gust
knots
rain 1hr
in
rain 24hr
in
rain mn
in
humidity
%
barometer
mb
20260507174533 52 294 6.1 8.7 0.00 0.10 0.10 86 1000.8
20260507174010 52 220 2.6 9.6 0.00 0.10 0.10 88 1000.4
20260507173508 51 241 6.1 9.6 0.00 0.10 0.10 88 1000.8
20260507173034 51 248 6.1 8.7 0.00 0.10 0.10 89 1001.0
20260507172509 51 307 0.9 7.8 0.00 0.10 0.10 90 1000.6
20260507172014 51 258 4.3 10.4 0.00 0.10 0.10 90 1001.0
20260507171528 51 252 5.2 10.4 0.00 0.10 0.10 90 1001.3
20260507171012 50 267 7.0 10.4 0.00 0.10 0.10 90 1001.1
20260507170507 51 259 7.0 10.4 0.00 0.10 0.10 91 1001.2
20260507170021 51 237 5.2 8.7 0.00 0.10 0.10 92 1001.0
20260507165506 51 242 4.3 7.0 0.00 0.10 0.10 92 1000.9
20260507165010 51 270 3.5 8.7 0.00 0.10 0.10 92 1000.9
20260507164522 51 259 4.3 8.7 0.00 0.10 0.10 92 1000.8
20260507164011 51 253 5.2 7.8 0.00 0.10 0.10 92 1001.0
20260507163508 51 288 5.2 9.6 0.00 0.10 0.10 92 1000.8
20260507163024 51 245 7.0 9.6 0.00 0.10 0.10 92 1001.3
20260507162510 51 277 5.2 10.4 0.00 0.10 0.10 92 1001.2
20260507162010 51 281 4.3 13.0 0.00 0.10 0.10 92 1001.2
20260507161532 51 273 5.2 13.9 0.00 0.10 0.10 92 1001.2
20260507161008 51 281 7.8 13.9 0.00 0.10 0.10 92 1001.4
20260507160510 51 18 4.3 7.8 0.00 0.10 0.10 92 1001.3
20260507160029 51 264 3.5 6.1 0.00 0.10 0.10 92 1001.2
20260507155513 51 171 2.6 7.8 0.00 0.10 0.10 92 1000.9
20260507155011 51 284 3.5 8.7 0.00 0.10 0.10 92 1001.7
20260507154529 51 243 5.2 8.7 0.00 0.10 0.10 92 1001.8
20260507154010 51 226 3.5 7.0 0.00 0.10 0.10 92 1001.7
20260507153507 51 305 3.5 10.4 0.00 0.10 0.10 92 1001.8
20260507153037 51 257 5.2 10.4 0.00 0.10 0.10 92 1002.0
20260507152508 51 240 3.5 6.1 0.01 0.10 0.10 92 1001.9
20260507152009 51 233 3.5 6.1 0.01 0.10 0.10 92 1001.7
20260507151526 51 229 2.6 7.8 0.02 0.10 0.10 92 1001.2
20260507151008 51 191 4.3 7.8 0.03 0.10 0.10 92 1001.5
20260507150509 51 200 4.3 7.8 0.03 0.10 0.10 92 1001.8
20260507150030 52 219 4.3 8.7 0.03 0.10 0.10 92 1002.0
20260507145508 52 234 3.5 8.7 0.03 0.10 0.10 92 1002.5
20260507145011 52 226 3.5 8.7 0.03 0.09 0.09 92 1002.4
20260507144526 52 214 4.3 9.6 0.03 0.09 0.09 92 1002.2
20260507144012 52 212 3.5 9.6 0.03 0.09 0.09 92 1001.9
20260507143510 52 221 4.3 13.0 0.03 0.09 0.09 91 1001.9
20260507143027 52 243 6.1 13.0 0.03 0.09 0.09 91 1002.3
20260507142506 52 185 4.3 12.2 0.02 0.08 0.08 91 1002.6
20260507142009 52 280 5.2 11.3 0.02 0.08 0.08 91 1002.3
20260507141523 53 266 6.1 10.4 0.01 0.07 0.07 91 1002.0
20260507141008 53 191 5.2 11.3 0.00 0.07 0.07 91 1001.7
20260507140507 53 232 6.1 11.3 0.00 0.07 0.07 91 1001.7
20260507140025 53 211 3.5 9.6 0.00 0.07 0.07 90 1001.7
20260507135508 53 236 4.3 11.3 0.00 0.06 0.06 90 1002.0
20260507135011 53 211 6.1 12.2 0.00 0.06 0.06 89 1001.8
20260507134526 53 245 8.7 12.2 0.00 0.06 0.06 89 1002.4
20260507134008 53 274 7.0 12.2 0.00 0.06 0.06 89 1002.4
20260507133513 53 220 7.0 14.8 0.00 0.06 0.06 88 1002.1
20260507133014 53 242 8.7 14.8 0.00 0.06 0.06 88 1002.2
20260507132505 54 246 8.7 14.8 0.00 0.06 0.06 87 1002.1
20260507132007 54 204 7.0 17.4 0.00 0.06 0.06 87 1001.8
20260507131508 54 184 8.7 17.4 0.00 0.06 0.06 87 1002.1
20260507131004 54 221 10.4 17.4 0.00 0.06 0.06 87 1002.1
20260507130505 54 257 9.6 18.2 0.00 0.06 0.06 87 1002.4
20260507130012 54 242 8.7 18.2 0.00 0.06 0.06 88 1002.5
20260507125505 54 252 7.0 13.0 0.00 0.06 0.06 89 1002.6
20260507125008 54 264 5.2 12.2 0.00 0.06 0.06 89 1002.4
20260507124511 54 215 6.1 13.0 0.00 0.06 0.06 89 1002.1
20260507124006 54 181 7.0 13.0 0.00 0.06 0.06 89 1002.1
20260507123504 54 197 7.8 13.0 0.00 0.06 0.06 89 1002.1
20260507123015 54 251 7.8 13.9 0.00 0.06 0.06 89 1001.8
20260507122504 54 251 8.7 13.9 0.00 0.06 0.06 89 1001.8
20260507122009 54 192 7.8 15.6 0.00 0.06 0.06 89 1002.2
20260507121518 54 217 10.4 17.4 0.00 0.06 0.06 89 1001.9
20260507121008 54 193 9.6 17.4 0.00 0.06 0.06 89 1001.8
20260507120511 54 211 7.0 17.4 0.00 0.06 0.06 89 1001.9
20260507120021 54 206 10.4 17.4 0.00 0.06 0.06 89 1002.0
20260507115504 54 192 9.6 17.4 0.00 0.06 0.06 89 1002.2
20260507115003 54 184 7.8 19.1 0.01 0.06 0.06 89 1001.9
20260507114508 54 185 10.4 21.7 0.01 0.06 0.06 89 1002.0
20260507114009 54 224 11.3 21.7 0.01 0.06 0.06 89 1002.0
20260507113504 54 218 10.4 18.2 0.01 0.06 0.06 89 1001.7
20260507113009 54 214 11.3 20.9 0.01 0.06 0.06 89 1001.4
20260507112505 54 200 9.6 20.9 0.01 0.06 0.06 90 1000.9
20260507112005 54 142 7.0 14.8 0.01 0.06 0.06 90 1000.7
20260507111516 54 219 9.6 13.9 0.01 0.06 0.06 91 1000.9
20260507111006 54 164 7.8 13.9 0.01 0.06 0.06 91 1001.3
20260507110505 54 165 5.2 15.6 0.00 0.05 0.05 91 1001.5
20260507110023 54 209 8.7 15.6 0.00 0.05 0.05 91 1001.5
20260507105508 54 162 7.8 12.2 0.01 0.05 0.05 91 1001.6
20260507105006 54 210 7.8 13.9 0.00 0.04 0.04 91 1002.1
20260507104521 54 231 8.7 13.9 0.00 0.04 0.04 90 1001.9
20260507104010 55 203 6.1 15.6 0.00 0.04 0.04 90 1002.0
20260507103503 55 253 8.7 15.6 0.00 0.04 0.04 90 1002.0
20260507103010 55 205 8.7 19.1 0.00 0.04 0.04 90 1002.0
20260507102504 55 246 9.6 19.1 0.00 0.04 0.04 91 1001.9
20260507102006 55 207 10.4 20.9 0.00 0.04 0.04 91 1001.9
20260507101510 55 188 13.9 21.7 0.00 0.04 0.04 91 1001.8
20260507101005 55 235 10.4 21.7 0.00 0.04 0.04 91 1001.9
20260507100506 55 190 12.2 20.0 0.00 0.04 0.04 91 1001.7
20260507100024 56 195 11.3 22.6 0.00 0.04 0.04 91 1001.8
20260507095508 56 198 11.3 26.9 0.00 0.03 0.03 91 1001.6
20260507095008 56 214 12.2 26.9 0.00 0.03 0.03 90 1001.2
20260507094526 56 165 11.3 25.2 0.00 0.03 0.03 90 1001.3
20260507094007 56 229 12.2 25.2 0.00 0.03 0.03 90 1001.1
20260507093507 56 264 15.6 25.2 0.00 0.03 0.03 90 1000.9
20260507093022 56 247 10.4 24.3 0.00 0.03 0.03 90 1000.7
20260507092513 56 172 13.9 27.8 0.00 0.03 0.03 90 1000.7
20260507092007 55 163 13.9 27.8 0.00 0.03 0.03 90 1000.9
20260507091507 55 150 12.2 25.2 0.00 0.03 0.03 90 1001.0
20260507091004 55 128 9.6 24.3 0.00 0.03 0.03 90 1001.0
20260507090503 55 160 13.0 24.3 0.00 0.03 0.03 90 1001.0
20260507090013 55 169 15.6 24.3 0.00 0.03 0.03 90 1000.9
20260507085507 55 141 12.2 21.7 0.00 0.03 0.03 90 1001.0
20260507085006 55 228 13.9 21.7 0.00 0.03 0.03 90 1001.1
20260507084519 55 167 12.2 24.3 0.00 0.03 0.03 90 1001.1
20260507084009 55 206 11.3 26.9 0.00 0.03 0.03 90 1001.1
20260507083508 55 167 14.8 26.9 0.00 0.03 0.03 90 1001.1
20260507083022 55 128 13.9 22.6 0.00 0.03 0.03 89 1001.1
20260507082505 55 167 11.3 23.5 0.00 0.03 0.03 89 1001.4
20260507082010 55 183 13.9 23.5 0.00 0.03 0.03 89 1001.6
20260507081523 55 190 11.3 24.3 0.00 0.03 0.03 89 1001.8
20260507081008 55 150 13.0 26.9 0.00 0.03 0.03 88 1001.9
20260507080509 56 138 12.2 29.5 0.00 0.03 0.03 88 1002.1
20260507080034 56 172 12.2 29.5 0.00 0.03 0.03 88 1002.3
20260507075503 56 87 12.2 28.7 0.00 0.03 0.03 88 1002.4
20260507075004 56 141 13.9 26.1 0.00 0.03 0.03 88 1002.3
20260507074514 56 245 13.9 31.3 0.00 0.03 0.03 88 1002.4
20260507074009 56 129 13.9 31.3 0.00 0.03 0.03 88 1002.3
20260507073507 56 107 13.9 30.4 0.00 0.03 0.03 87 1002.8
20260507073020 56 157 15.6 34.8 0.00 0.03 0.03 87 1002.8
20260507072508 56 146 12.2 34.8 0.00 0.03 0.03 86 1002.8
20260507072008 57 186 13.0 27.8 0.00 0.02 0.02 86 1003.0
20260507071555 56 155 11.3 27.8 0.00 0.02 0.02 87 1002.9
20260507071008 56 150 11.3 21.7 0.00 0.02 0.02 87 1003.2
20260507070514 56 162 10.4 26.1 0.00 0.02 0.02 87 1003.4
20260507070026 56 191 12.2 26.1 0.00 0.02 0.02 87 1003.5
20260507065508 56 148 13.0 24.3 0.00 0.02 0.02 87 1003.3
20260507065010 57 162 10.4 19.1 0.00 0.02 0.02 87 1003.5
20260507064527 57 206 11.3 20.0 0.00 0.02 0.02 87 1003.8
20260507064008 57 182 9.6 20.0 0.01 0.02 0.02 87 1003.8
20260507063504 57 161 8.7 22.6 0.01 0.02 0.02 86 1004.0
20260507063015 57 207 10.4 22.6 0.01 0.02 0.02 86 1004.2
20260507062509 57 200 13.9 20.9 0.01 0.02 0.02 86 1004.3
20260507062005 57 158 7.8 22.6 0.01 0.02 0.02 86 1004.4
20260507061519 57 148 9.6 22.6 0.01 0.02 0.02 86 1004.5
20260507061007 57 125 9.6 20.9 0.02 0.02 0.02 86 1004.7
20260507060507 57 147 10.4 22.6 0.02 0.02 0.02 86 1004.8
20260507060024 57 169 8.7 22.6 0.02 0.02 0.02 86 1005.0
20260507055509 57 152 13.0 22.6 0.02 0.02 0.02 85 1005.3
20260507055015 57 148 10.4 22.6 0.01 0.01 0.01 84 1005.6
20260507054523 58 141 13.0 23.5 0.01 0.01 0.01 83 1005.6
20260507054012 58 190 13.9 23.5 0.00 0.00 0.00 83 1005.6
20260507053509 58 171 11.3 21.7 0.00 0.00 0.00 83 1005.8
20260507053039 58 163 13.0 21.7 0.00 0.00 0.00 82 1006.1
20260507052510 58 162 9.6 20.0 0.00 0.00 0.00 82 1006.3
20260507052007 58 179 9.6 17.4 0.00 0.00 0.00 82 1006.4
20260507051527 58 165 8.7 21.7 0.00 0.00 0.00 81 1006.6
20260507051003 58 143 10.4 21.7 0.00 0.00 0.00 81 1006.7
20260507050510 58 146 8.7 21.7 0.00 0.00 0.00 81 1006.8
20260507050031 58 176 12.2 21.7 0.00 0.00 0.00 81 1007.0
20260507045510 59 162 6.1 20.9 0.00 0.00 0.00 81 1007.2
20260507045010 59 168 12.2 20.9 0.00 0.00 0.00 80 1006.9
20260507044524 59 143 10.4 19.1 0.00 0.00 0.00 80 1007.0
20260507044009 59 148 8.7 22.6 0.00 0.00 0.00 80 1006.8
20260507043507 59 203 10.4 22.6 0.00 0.00 0.00 80 1006.8
20260507043011 59 183 13.0 22.6 0.00 0.00 0.00 79 1007.0
20260507042503 60 162 14.8 22.6 0.00 0.00 0.00 79 1007.3
20260507042002 60 146 8.7 23.5 0.00 0.00 0.00 79 1007.4
20260507041513 60 144 12.2 23.5 0.00 0.00 0.00 79 1007.5
20260507041004 60 223 9.6 20.0 0.00 0.00 0.00 78 1007.5
20260507040512 60 169 7.0 19.1 0.00 0.00 0.00 78 1007.9
20260507040018 60 161 8.7 23.5 0.00 0.00 0.00 78 1008.0
20260507035505 60 198 13.0 23.5 0.00 0.00 0.00 77 1008.0
20260507035008 60 199 10.4 20.0 0.00 0.00 0.00 77 1008.4
20260507034533 60 140 12.2 20.0 0.00 0.00 0.00 77 1008.2
20260507034004 60 157 7.8 17.4 0.00 0.00 0.00 78 1008.2
20260507033503 60 205 9.6 16.5 0.00 0.00 0.00 78 1008.2
20260507033013 60 150 9.6 14.8 0.00 0.00 0.00 78 1008.3
20260507032506 60 204 7.8 14.8 0.00 0.00 0.00 78 1008.4
20260507032007 60 207 7.0 17.4 0.00 0.00 0.00 78 1008.2
20260507031510 60 176 7.8 18.2 0.00 0.00 0.00 78 1008.2
20260507031004 59 159 11.3 18.2 0.00 0.00 0.00 79 1008.3
20260507030506 59 174 7.8 13.9 0.00 0.00 0.00 80 1008.6
20260507030015 59 195 8.7 18.2 0.00 0.00 0.00 80 1008.7
20260507025506 59 171 11.3 18.2 0.00 0.00 0.00 79 1008.7
20260507025005 59 133 9.6 15.6 0.00 0.00 0.00 78 1008.4
20260507024519 59 152 7.0 11.3 0.00 0.00 0.00 78 1008.7
20260507024006 59 167 5.2 11.3 0.00 0.00 0.00 77 1009.2
20260507023511 59 143 7.0 13.0 0.00 0.00 0.00 77 1009.2
20260507023027 59 176 6.1 13.0 0.00 0.00 0.00 77 1009.3
20260507022507 59 155 5.2 9.6 0.00 0.00 0.00 77 1009.8
20260507022006 59 164 5.2 12.2 0.00 0.00 0.00 77 1009.8
20260507021505 59 160 6.1 12.2 0.00 0.00 0.00 76 1010.2
20260507021004 59 172 6.1 12.2 0.00 0.00 0.00 76 1010.3
20260507020505 59 199 5.2 11.3 0.00 0.00 0.00 75 1010.4
20260507020015 60 136 4.3 11.3 0.00 0.00 0.00 75 1010.4
20260507015504 60 203 3.5 10.4 0.00 0.00 0.00 75 1010.4
20260507015008 60 193 6.1 10.4 0.00 0.00 0.00 75 1010.7
20260507014517 60 214 6.1 10.4 0.00 0.00 0.00 74 1010.7
20260507014006 60 169 5.2 13.9 0.00 0.00 0.00 74 1010.7
20260507013508 60 203 7.0 13.9 0.00 0.00 0.00 74 1010.8
20260507013021 60 179 7.8 13.9 0.00 0.00 0.00 74 1010.4
20260507012509 61 199 6.1 13.9 0.00 0.00 0.00 73 1010.6
20260507012008 61 157 7.8 13.9 0.00 0.00 0.00 73 1010.9
20260507011523 61 176 7.8 13.9 0.00 0.00 0.00 72 1010.8
20260507011007 61 249 8.7 13.9 0.00 0.00 0.00 72 1011.2
20260507010511 62 216 8.7 13.0 0.00 0.00 0.00 72 1011.1
20260507010007 62 207 7.0 14.8 0.00 0.00 0.00 72 1010.9
20260507005505 62 224 7.8 15.6 0.00 0.00 0.00 71 1010.8
20260507005005 62 147 8.7 16.5 0.00 0.00 0.00 71 1011.0
20260507004514 62 158 9.6 17.4 0.00 0.00 0.00 70 1010.9
20260507004005 62 189 7.8 17.4 0.00 0.00 0.00 70 1011.0
20260507003504 62 165 8.7 17.4 0.00 0.00 0.00 70 1010.9
20260507003017 62 191 10.4 17.4 0.00 0.00 0.00 69 1010.8
20260507002509 63 243 8.7 17.4 0.00 0.00 0.00 69 1010.9
20260507002010 63 229 11.3 19.1 0.00 0.00 0.00 69 1011.1
20260507001521 63 233 11.3 19.1 0.00 0.00 0.00 68 1010.9
20260507001008 63 253 11.3 16.5 0.00 0.00 0.00 69 1010.9
20260507000509 63 191 9.6 16.5 0.00 0.00 0.00 69 1010.6
20260507000024 63 167 9.6 23.5 0.00 0.00 0.00 68 1010.7
20260506235511 63 158 13.0 23.5 0.00 0.00 0.00 68 1010.6
20260506235008 63 170 12.2 22.6 0.00 0.00 0.00 68 1010.6
20260506234510 63 148 9.6 25.2 0.00 0.00 0.00 69 1010.5
20260506234006 63 150 11.3 25.2 0.00 0.00 0.00 69 1010.5
20260506233506 63 219 11.3 23.5 0.00 0.00 0.00 69 1010.2
20260506233014 63 220 11.3 24.3 0.00 0.00 0.00 69 1010.4
20260506232506 64 200 13.0 24.3 0.00 0.00 0.00 68 1010.3
20260506232004 64 230 13.0 25.2 0.00 0.00 0.00 68 1010.6
20260506231519 64 233 15.6 28.7 0.00 0.00 0.00 68 1010.4
20260506231008 64 165 16.5 30.4 0.00 0.00 0.00 68 1010.4
20260506230509 64 203 15.6 30.4 0.00 0.00 0.00 68 1010.3
20260506230024 64 222 15.6 28.7 0.00 0.00 0.00 67 1010.1
20260506225508 64 206 11.3 22.6 0.00 0.00 0.00 67 1010.2
20260506225008 65 177 14.8 30.4 0.00 0.00 0.00 67 1010.3
20260506224526 65 247 13.9 30.4 0.00 0.00 0.00 67 1010.2
20260506224011 65 238 13.0 27.8 0.00 0.00 0.00 67 1010.1
20260506223513 65 262 17.4 30.4 0.00 0.00 0.00 66 1010.1
20260506223026 65 206 19.1 30.4 0.00 0.00 0.00 66 1010.1
20260506222505 65 198 19.1 29.5 0.00 0.00 0.00 66 1010.2
20260506222011 65 266 16.5 31.3 0.00 0.00 0.00 66 1010.2
20260506221516 66 252 18.2 31.3 0.00 0.00 0.00 65 1010.4
20260506221010 66 245 13.9 25.2 0.00 0.00 0.00 65 1010.4
20260506220507 66 259 13.0 32.2 0.00 0.00 0.00 65 1010.3
20260506220031 66 198 14.8 32.2 0.00 0.00 0.00 64 1010.4
20260506215507 66 217 19.1 33.0 0.00 0.00 0.00 64 1010.3
20260506215007 67 188 16.5 33.0 0.00 0.00 0.00 64 1010.4
20260506214526 67 214 15.6 30.4 0.00 0.00 0.00 63 1010.6
20260506214009 67 248 15.6 33.9 0.00 0.00 0.00 62 1010.4
20260506213509 67 195 15.6 33.9 0.00 0.00 0.00 62 1010.4
20260506213030 67 226 14.8 36.5 0.00 0.00 0.00 62 1010.4
20260506212507 67 181 20.9 36.5 0.00 0.00 0.00 62 1010.3
20260506212009 67 143 12.2 36.5 0.00 0.00 0.00 62 1010.5
20260506211529 67 201 16.5 32.2 0.00 0.00 0.00 63 1010.6
20260506211011 67 244 14.8 32.2 0.00 0.00 0.00 63 1010.4
20260506210504 67 187 14.8 31.3 0.00 0.00 0.00 63 1010.3
20260506210016 67 210 17.4 31.3 0.00 0.00 0.00 63 1010.5
20260506205510 67 222 18.2 29.5 0.00 0.00 0.00 63 1010.3
20260506205007 68 212 13.9 31.3 0.00 0.00 0.00 63 1010.6
20260506204521 68 190 17.4 31.3 0.00 0.00 0.00 63 1010.3
20260506204007 68 262 17.4 27.8 0.00 0.00 0.00 62 1010.2
20260506203512 68 240 13.9 33.9 0.00 0.00 0.00 63 1010.2
20260506203028 68 195 13.0 33.9 0.00 0.00 0.00 62 1010.1
20260506202508 68 212 15.6 31.3 0.00 0.00 0.00 62 1010.1
20260506202012 68 252 18.2 31.3 0.00 0.00 0.00 62 1009.9
20260506201528 68 217 18.2 36.5 0.00 0.00 0.00 63 1010.0
20260506201010 68 215 23.5 36.5 0.00 0.00 0.00 63 1009.9
20260506200510 68 176 22.6 32.2 0.00 0.00 0.00 62 1009.7
20260506200028 68 212 16.5 33.9 0.00 0.00 0.00 63 1009.8
20260506195509 68 158 15.6 33.9 0.00 0.00 0.00 64 1009.8
20260506195011 68 224 13.9 33.9 0.00 0.00 0.00 64 1009.9
20260506194518 68 170 18.2 33.9 0.00 0.00 0.00 63 1009.7
20260506194005 68 215 14.8 34.8 0.00 0.00 0.00 63 1009.9
20260506193509 68 226 22.6 34.8 0.00 0.00 0.00 64 1009.7
20260506193005 68 212 18.2 32.2 0.00 0.00 0.00 65 1009.9
20260506192503 68 234 13.9 32.2 0.00 0.00 0.00 66 1010.1
20260506192003 68 226 18.2 31.3 0.00 0.00 0.00 65 1010.0
20260506191507 67 153 19.1 31.3 0.00 0.00 0.00 65 1010.1
20260506191003 67 186 16.5 26.1 0.00 0.00 0.00 67 1010.4
20260506190503 67 216 17.4 24.3 0.00 0.00 0.00 67 1010.5
20260506190019 67 233 13.9 28.7 0.00 0.00 0.00 68 1010.3
20260506185503 66 236 17.4 28.7 0.00 0.00 0.00 68 1010.4
20260506185008 66 148 17.4 29.5 0.00 0.00 0.00 69 1010.6
20260506184517 66 218 16.5 29.5 0.00 0.00 0.00 69 1010.6
20260506184008 66 212 14.8 27.8 0.00 0.00 0.00 69 1010.8
20260506183508 66 184 16.5 27.8 0.00 0.00 0.00 70 1010.8
20260506183022 66 172 10.4 24.3 0.00 0.00 0.00 70 1011.0
20260506182507 66 237 13.9 30.4 0.00 0.00 0.00 70 1010.9
20260506182009 66 214 17.4 30.4 0.00 0.00 0.00 71 1010.8
20260506181525 66 166 14.8 27.8 0.00 0.00 0.00 71 1010.9
20260506181006 65 198 16.5 27.8 0.00 0.00 0.00 71 1011.0
20260506180506 65 231 18.2 25.2 0.00 0.00 0.00 71 1011.1
20260506180010 65 202 15.6 24.3 0.00 0.00 0.00 71 1011.1
20260506175506 66 258 13.9 28.7 0.00 0.00 0.00 71 1011.1
20260506175006 66 182 13.9 29.5 0.00 0.00 0.00 71 1011.0